GW1109 Weather Reports


time (UTC)temp
C
wind
direction
speed
KPH
gust
KPH
rain 1hr
cm
rain 24hr
cm
rain mn
cm
humidity
%
barometer
mb
20260831024603 19 340 6.4 16.1 0.03 0.03 0.03 90 1017.5
20260831023057 19 304 4.8 8.0 0.03 0.03 0.03 88 1017.1
20260831021554 19 298 4.8 11.3 0.03 0.03 0.03 86 1017.2
20260831020049 19 256 3.2 12.9 0.03 0.03 0.03 83 1016.7
20260831014547 19 294 6.4 14.5 0.00 0.00 0.00 80 1017.0
20260831013107 20 285 6.4 12.9 0.00 0.00 0.00 76 1016.7
20260831011556 20 306 4.8 9.7 0.00 0.00 0.00 73 1016.5
20260831010116 20 284 3.2 8.0 0.00 0.00 0.00 72 1016.2
20260831004549 20 306 3.2 6.4 0.00 0.00 0.00 73 1015.9
20260831003056 20 0 0.0 4.8 0.00 0.00 0.00 73 1015.5
20260831001552 20 339 3.2 8.0 0.00 0.00 0.00 72 1015.7
20260831000110 20 0 0.0 3.2 0.00 0.00 0.00 69 1015.2
20260830234559 20 305 0.0 4.8 0.00 0.00 0.00 71 1015.1
20260830233051 20 244 0.0 4.8 0.00 0.00 0.00 69 1015.0
20260830231557 21 0 0.0 3.2 0.00 0.00 0.00 68 1015.2
20260830230054 21 0 0.0 0.0 0.00 0.00 0.00 69 1015.2
20260830224555 22 0 0.0 0.0 0.00 0.00 0.00 67 1015.2
20260830223128 22 0 0.0 1.6 0.00 0.00 0.00 61 1015.4
20260830221553 22 0 0.0 1.6 0.00 0.00 0.00 61 1015.6
20260830220107 22 244 0.0 1.6 0.00 0.00 0.00 58 1015.5
20260830214603 22 244 3.2 9.7 0.00 0.00 0.00 57 1015.8
20260830213056 22 315 3.2 12.9 0.00 0.00 0.00 58 1015.8
20260830211549 22 327 4.8 14.5 0.00 0.00 0.00 58 1015.9
20260830210049 22 265 6.4 12.9 0.00 0.00 0.00 58 1016.1
20260830204547 22 292 3.2 14.5 0.00 0.00 0.00 58 1016.2
20260830203055 22 277 3.2 11.3 0.00 0.00 0.00 58 1016.1
20260830201552 23 261 3.2 9.7 0.00 0.00 0.00 59 1016.4
20260830200103 22 236 1.6 8.0 0.00 0.00 0.00 60 1016.5
20260830194608 22 275 4.8 9.7 0.00 0.00 0.00 61 1016.6
20260830193103 22 239 6.4 14.5 0.00 0.00 0.00 58 1016.9
20260830191551 22 223 4.8 11.3 0.00 0.00 0.00 62 1017.0
20260830190105 22 225 4.8 12.9 0.00 0.00 0.00 60 1017.2
20260830184608 22 263 6.4 16.1 0.00 0.00 0.00 61 1017.5
20260830183100 22 264 3.2 11.3 0.00 0.00 0.00 63 1017.4
20260830181549 22 264 6.4 16.1 0.00 0.00 0.00 64 1017.6
20260830180103 22 258 6.4 16.1 0.00 0.00 0.00 63 1017.9
20260830174605 22 283 6.4 19.3 0.00 0.00 0.00 64 1018.0
20260830173107 22 280 6.4 14.5 0.00 0.00 0.00 65 1018.1
20260830171621 22 241 6.4 14.5 0.00 0.00 0.00 64 1018.0
20260830170103 22 271 4.8 12.9 0.00 0.00 0.00 63 1017.9
20260830164557 22 271 3.2 19.3 0.00 0.00 0.00 60 1017.6
20260830163052 22 240 3.2 11.3 0.00 0.00 0.00 59 1018.2
20260830161602 22 273 6.4 16.1 0.00 0.00 0.00 57 1018.2
20260830154553 23 269 9.7 27.4 0.00 0.00 0.00 55 1018.3
20260830153054 23 272 8.0 20.9 0.00 0.00 0.00 56 1018.4
20260830151610 22 269 9.7 16.1 0.00 0.00 0.00 58 1018.5
20260830150105 22 306 9.7 20.9 0.00 0.00 0.00 58 1018.6
20260830144557 22 234 8.0 20.9 0.00 0.00 0.00 58 1018.7
20260830143055 22 272 4.8 14.5 0.00 0.00 0.00 62 1018.7
20260830141604 21 228 4.8 16.1 0.00 0.00 0.00 62 1018.7
20260830140100 20 218 8.0 17.7 0.00 0.00 0.00 63 1018.9
20260830134555 20 224 4.8 14.5 0.00 0.00 0.00 63 1018.8
20260830133059 20 269 4.8 12.9 0.00 0.00 0.00 67 1019.1
20260830131554 18 254 6.4 16.1 0.00 0.00 0.00 69 1019.1
20260830130056 17 271 4.8 11.3 0.00 0.00 0.00 74 1019.2
20260830124558 16 225 6.4 17.7 0.00 0.00 0.00 73 1019.3
20260830123058 16 229 4.8 14.5 0.00 0.00 0.00 72 1019.3
20260830121556 16 198 6.4 19.3 0.00 0.00 0.00 71 1019.4
20260830120049 16 250 6.4 16.1 0.00 0.00 0.00 72 1019.4
20260830114601 16 263 6.4 17.7 0.00 0.00 0.00 70 1019.5
20260830113054 16 257 8.0 17.7 0.00 0.00 0.00 70 1019.4
20260830111549 16 267 9.7 19.3 0.00 0.00 0.00 71 1019.5
20260830110057 16 257 4.8 16.1 0.00 0.00 0.00 71 1019.4
20260830104557 16 205 4.8 12.9 0.00 0.00 0.00 70 1019.3
20260830103052 16 279 4.8 14.5 0.00 0.00 0.00 71 1019.3
20260830101551 15 228 4.8 12.9 0.00 0.00 0.00 73 1019.5
20260830100104 14 274 3.2 11.3 0.00 0.00 0.00 76 1019.5
20260830094552 14 275 3.2 12.9 0.00 0.00 0.00 76 1019.5
20260830093051 15 258 3.2 11.3 0.00 0.00 0.00 75 1019.7
20260830091548 14 263 3.2 11.3 0.00 0.00 0.00 77 1019.9
20260830090059 14 234 3.2 11.3 0.00 0.00 0.00 77 1020.0
20260830084616 13 224 4.8 11.3 0.00 0.00 0.00 78 1020.1
20260830083100 13 222 4.8 11.3 0.00 0.00 0.00 78 1020.0
20260830081600 14 225 3.2 9.7 0.00 0.00 0.00 77 1019.9
20260830080054 14 238 1.6 9.7 0.00 0.00 0.00 76 1019.8
20260830074622 14 221 4.8 12.9 0.00 0.00 0.00 76 1019.7
20260830073053 14 0 1.6 11.3 0.00 0.00 0.00 76 1019.8
20260830071557 13 242 1.6 9.7 0.00 0.00 0.00 78 1019.8
20260830070048 13 223 1.6 6.4 0.00 0.00 0.00 78 1019.8
20260830064551 14 248 0.0 4.8 0.00 0.00 0.00 79 1019.9
20260830063049 14 234 0.0 6.4 0.00 0.00 0.00 77 1020.2
20260830061549 14 236 0.0 6.4 0.00 0.00 0.00 77 1020.1
20260830060057 14 269 0.0 4.8 0.00 0.00 0.00 80 1020.3
20260830054551 15 0 0.0 4.8 0.00 0.00 0.00 79 1020.3
20260830053048 15 238 0.0 6.4 0.00 0.00 0.00 79 1020.1
20260830051557 15 222 0.0 8.0 0.00 0.00 0.00 82 1020.1
20260830050051 15 0 0.0 6.4 0.00 0.00 0.00 88 1020.4
20260830044559 15 0 0.0 3.2 0.00 0.00 0.00 90 1020.4
20260830043113 15 233 0.0 3.2 0.00 0.00 0.00 91 1020.5
20260830041551 15 0 0.0 4.8 0.00 0.00 0.00 90 1020.5
20260830040055 15 237 0.0 4.8 0.00 0.00 0.00 89 1020.5
20260830034558 15 244 0.0 4.8 0.00 0.00 0.00 88 1020.5
20260830033055 15 0 1.6 6.4 0.00 0.00 0.00 87 1020.6
20260830031550 15 200 0.0 4.8 0.00 0.00 0.00 86 1020.7
20260830030059 15 0 0.0 1.6 0.00 0.00 0.00 84 1020.6